Pond Inlet,

9:30 PM EDT on March 29, 2017 (GMT -0400)
Pond Inlet

Weather History for CYIO - November, 2013

Change the Weather History Date:

Wednesday, November 13, 2013

  Actual Average Record
Temperature  
Mean Temperature -16 °F -  
Max Temperature -11 °F -3 °F 25 °F (2015)
Min Temperature -20 °F -12 °F -22 °F (2004)
Degree Days  
Heating Degree Days 80    
Moisture  
Dew Point -22 °F    
Average Humidity 70    
Maximum Humidity 77    
Minimum Humidity 55    
Precipitation  
Precipitation 0.00 in - - ()
Sea Level Pressure  
Sea Level Pressure 29.63 in    
Wind  
Wind Speed 7 mph ()    
Max Wind Speed 12 mph    
Max Gust Speed -    
Visibility 10.5 miles    
Events Snow    
Averages and records for this station are not official NWS values.
T = Trace of Precipitation, MM = Missing Value Source: Averaged Metar Reports

Daily Weather History Graph

Daily Weather History Graph

Search for Another Location

Airport or City:

Trip Planner

Search our weather history database for the weather conditions in past years. The results will help you decide how hot, cold, wet, or windy it might be!

Date:

Astronomy

Nov. 13, 2013 Rise Set
Actual Time 11:40 AM EST 12:10 PM EST
Civil Twilight 8:47 AM EST 3:04 PM EST
Nautical Twilight 7:08 AM EST 4:42 PM EST
Astronomical Twilight 5:45 AM EST 6:05 PM EST
Moon 1:55 PM EST (11/13) 3:15 AM EST (11/13)
Length of Visible Light 6h 17m
Length of Day
0h 29m
Waxing Gibbous, 84% of the Moon is Illuminated
Nov 13
Waxing Gibbous
Nov 17
Full
Nov 25
Last Quarter
Dec 2
New
Dec 9
First Quarter

Hourly Weather History & Observations

Time (EST) Temp. Windchill Dew Point Humidity Pressure Visibility Wind Dir Wind Speed Gust Speed Precip Events Conditions
12:00 AM -16.6 °F -34.4 °F -23.8 °F 70% 29.65 in 9.0 mi SSE 8.1 mph - N/A Snow Light Snow
1:00 AM -17 °F - -23 °F 63% 29.65 in 10 mi SSE 8.1 mph - - Snow Light Snow
1:00 AM -16.6 °F -34.4 °F -22.0 °F 76% 29.65 in 9.0 mi SSE 8.1 mph - N/A Snow Light Snow
2:00 AM -16.6 °F -36.8 °F -22.0 °F 76% 29.65 in 9.0 mi SSE 10.4 mph - N/A Snow Light Snow
3:00 AM -16.6 °F -31.3 °F -22.0 °F 76% 29.65 in 9.0 mi South 5.8 mph - N/A Snow Light Snow
4:00 AM -19 °F - -25 °F 58% 29.66 in 10 mi South 8.1 mph - - Snow Light Snow
4:00 AM -18.4 °F -36.6 °F -25.6 °F 70% 29.66 in 9.0 mi South 8.1 mph - N/A Snow Light Snow
5:00 AM -18.4 °F -35.1 °F -23.8 °F 76% 29.67 in 9.0 mi SSE 6.9 mph - N/A Snow Light Snow
6:00 AM -16.6 °F -34.4 °F -22.0 °F 76% 29.66 in 9.0 mi SSE 8.1 mph - N/A Snow Light Snow
7:00 AM -17 °F - -23 °F 61% 29.66 in 10 mi SSE 9.2 mph - - Snow Light Snow
7:00 AM -16.6 °F -35.7 °F -23.8 °F 70% 29.66 in 9.0 mi SSE 9.2 mph - N/A Snow Light Snow
8:00 AM -13.0 °F -32.4 °F -20.2 °F 70% 29.65 in 9.0 mi SSE 10.4 mph - N/A Snow Light Snow
9:00 AM -16.6 °F -29.3 °F -23.8 °F 70% 29.65 in 9.0 mi SSE 4.6 mph - N/A Snow Light Snow
10:00 AM -20 °F - -26 °F 57% 29.65 in 10 mi South 5.8 mph - - Snow Light Snow
10:00 AM -20.2 °F -33.5 °F -27.4 °F 69% 29.65 in 9.0 mi South 4.6 mph - N/A Snow Light Snow
11:00 AM -18.4 °F -36.6 °F -23.8 °F 76% 29.65 in 15.0 mi South 8.1 mph - N/A   Partly Cloudy
12:00 PM -16.6 °F -36.8 °F -22.0 °F 76% 29.65 in 15.0 mi SSE 10.4 mph - N/A   Partly Cloudy
1:00 PM -16.6 °F -35.7 °F -22.0 °F 76% 29.65 in 15.0 mi SSE 9.2 mph - N/A   Partly Cloudy
2:00 PM -14.8 °F -33.5 °F -22.0 °F 70% 29.65 in 15.0 mi SSE 9.2 mph - N/A   Clear
3:00 PM -14.8 °F -35.6 °F -22.0 °F 70% 29.64 in 15.0 mi SE 11.5 mph - N/A   Clear
4:00 PM -16 °F - -23 °F 55% 29.63 in 10 mi SSE 9.2 mph - - Snow Light Snow
4:00 PM -16.6 °F -35.7 °F -23.8 °F 70% 29.63 in 15.0 mi SSE 9.2 mph - N/A   Clear
5:00 PM -13.0 °F -30.0 °F -20.2 °F 70% 29.63 in 15.0 mi South 8.1 mph - N/A   Partly Cloudy
6:00 PM -16.6 °F -34.4 °F -22.0 °F 76% 29.62 in 9.0 mi South 8.1 mph - N/A Snow Light Snow
7:00 PM -14 °F - -21 °F 58% 29.60 in 9 mi South 6.9 mph - - Snow Light Snow
7:00 PM -14.8 °F -32.2 °F -20.2 °F 77% 29.60 in 9.0 mi South 8.1 mph - N/A Snow Light Snow
8:00 PM -14.8 °F -32.2 °F -20.2 °F 77% 29.57 in 7.0 mi South 8.1 mph - N/A Snow Light Snow
9:00 PM -14.8 °F -30.8 °F -20.2 °F 77% 29.55 in 9.0 mi South 6.9 mph - N/A Snow Light Snow
10:00 PM -14 °F - -20 °F 61%  in 10 mi South 6.9 mph - - Snow Light Snow
10:00 PM -13.0 °F -28.6 °F -20.2 °F 70% 29.53 in 9.0 mi South 6.9 mph - N/A Snow Light Snow
11:00 PM -13.0 °F -30.0 °F -20.2 °F 70% 29.50 in 9.0 mi SSE 8.1 mph - N/A Snow Light Snow